Time,TemperatureF,DewpointF,PressureIn,WindDirection,WindDirectionDegrees,WindSpeedMPH,WindSpeedGustMPH,Humidity,HourlyPrecipIn,Conditions,Clouds,dailyrainin,SoftwareType,DateUTC
2013-10-04 00:00:00,64.6,61.9,29.90,SE,135,0.0,42.0,91,0.00,,---,0.00,VWS V14.01,2013-10-04 07:00:00,
2013-10-04 00:30:00,64.8,61.5,29.90,SE,135,0.0,3.0,89,0.00,,---,0.00,VWS V14.01,2013-10-04 07:30:00,
2013-10-04 01:00:00,64.9,61.6,29.91,SE,135,0.0,0.0,89,0.00,,---,0.00,VWS V14.01,2013-10-04 08:00:00,
2013-10-04 01:30:00,65.1,61.8,29.91,SE,135,0.0,0.0,89,0.00,,---,0.00,VWS V14.01,2013-10-04 08:30:00,
2013-10-04 02:00:00,65.3,61.0,29.92,SE,135,0.0,0.0,86,0.00,,---,0.00,VWS V14.01,2013-10-04 09:00:00,
2013-10-04 02:30:00,65.7,61.7,29.92,SE,135,0.0,4.0,87,0.00,,---,0.00,VWS V14.01,2013-10-04 09:30:00,
2013-10-04 03:00:00,65.5,61.2,29.91,SE,135,0.0,2.0,86,0.00,,---,0.00,VWS V14.01,2013-10-04 10:00:00,
2013-10-04 03:30:00,64.7,60.4,29.91,SE,135,0.0,2.0,86,0.00,,---,0.00,VWS V14.01,2013-10-04 10:30:00,
2013-10-04 04:00:00,63.9,60.3,29.91,SE,135,1.0,3.0,88,0.00,,---,0.00,VWS V14.01,2013-10-04 11:00:00,
2013-10-04 04:30:00,62.7,59.4,29.91,SE,135,1.0,3.0,89,0.00,,---,0.00,VWS V14.01,2013-10-04 11:30:00,
2013-10-04 05:00:00,62.0,59.7,29.91,SE,135,0.0,2.0,92,0.00,,---,0.00,VWS V14.01,2013-10-04 12:00:00,
2013-10-04 05:30:00,61.4,59.4,29.92,SE,135,0.0,1.0,93,0.00,,---,0.00,VWS V14.01,2013-10-04 12:30:00,
2013-10-04 06:00:00,61.0,59.0,29.93,SE,135,0.0,1.0,93,0.00,,---,0.00,VWS V14.01,2013-10-04 13:00:00,
2013-10-04 06:30:00,60.1,58.1,29.94,SE,135,0.0,0.0,93,0.00,,---,0.00,VWS V14.01,2013-10-04 13:30:00,
2013-10-04 07:00:00,59.4,57.7,29.94,SE,135,0.0,2.0,94,0.00,,---,0.00,VWS V14.01,2013-10-04 14:00:00,
2013-10-04 07:30:00,59.5,58.4,29.95,SE,135,0.0,0.0,96,0.00,,---,0.00,VWS V14.01,2013-10-04 14:30:00,
2013-10-04 08:00:00,61.4,60.5,29.96,WSW,248,0.0,4.0,97,0.00,,---,0.00,VWS V14.01,2013-10-04 15:00:00,
2013-10-04 08:30:00,65.3,62.9,29.97,NW,315,1.0,5.0,92,0.00,,---,0.00,VWS V14.01,2013-10-04 15:30:00,
2013-10-04 09:00:00,68.3,61.5,29.98,NW,315,2.0,5.0,79,0.00,,---,0.00,VWS V14.01,2013-10-04 16:00:00,
2013-10-04 09:30:00,71.6,61.3,29.99,NW,315,2.0,8.0,70,0.00,,---,0.00,VWS V14.01,2013-10-04 16:30:00,
2013-10-04 10:00:00,75.5,61.1,29.99,NW,315,2.0,6.0,61,0.00,,---,0.00,VWS V14.01,2013-10-04 17:00:00,
2013-10-04 10:30:00,78.1,59.1,29.99,NNW,338,2.0,7.0,52,0.00,,---,0.00,VWS V14.01,2013-10-04 17:30:00,
2013-10-04 11:00:00,79.6,57.0,29.99,NW,315,2.0,8.0,46,0.00,,---,0.00,VWS V14.01,2013-10-04 18:00:00,
2013-10-04 11:30:00,83.3,54.3,29.99,North,0,2.0,7.0,37,0.00,,---,0.00,VWS V14.01,2013-10-04 18:30:00,
2013-10-04 12:00:00,77.6,62.6,29.99,SSW,202,6.0,13.0,60,0.00,,---,0.00,VWS V14.01,2013-10-04 19:00:00,
2013-10-04 12:30:00,75.9,62.0,29.99,South,180,7.0,13.0,62,0.00,,---,0.00,VWS V14.01,2013-10-04 19:30:00,
2013-10-04 13:00:00,76.9,62.9,29.97,South,180,3.0,14.0,62,0.00,,---,0.00,VWS V14.01,2013-10-04 20:00:00,
2013-10-04 13:30:00,77.0,63.0,29.96,South,180,0.0,0.0,62,0.00,,---,0.00,VWS V14.01,2013-10-04 20:30:00,
2013-10-04 14:00:00,78.5,61.5,29.95,South,180,2.0,12.0,56,0.00,,---,0.00,VWS V14.01,2013-10-04 21:00:00,
2013-10-04 14:30:00,79.3,62.8,29.95,South,180,5.0,10.0,57,0.00,,---,0.00,VWS V14.01,2013-10-04 21:30:00,
2013-10-04 15:00:00,79.3,63.3,29.94,South,180,5.0,11.0,58,0.00,,---,0.00,VWS V14.01,2013-10-04 22:00:00,
2013-10-04 15:30:00,80.3,62.7,29.94,SSW,202,5.0,10.0,55,0.00,,---,0.00,VWS V14.01,2013-10-04 22:30:00,
2013-10-04 16:00:00,79.3,63.3,29.94,South,180,5.0,11.0,58,0.00,,---,0.00,VWS V14.01,2013-10-04 23:00:00,
2013-10-04 16:27:00,83.0,53.3,29.93,SSE,157,5.0,10.0,36,0.00,,---,0.00,VWS V14.01,2013-10-04 23:27:00,
2013-10-04 16:30:00,83.0,53.3,29.93,SSE,157,5.0,10.0,36,0.00,,---,0.00,VWS V14.01,2013-10-04 23:30:00,
2013-10-04 16:57:00,84.1,51.9,29.92,SSE,147,8.0,12.0,33,0.00,,---,0.00,VWS V14.01,2013-10-04 23:57:00,
2013-10-04 17:00:00,84.1,51.9,29.92,SSE,147,8.0,12.0,33,0.00,,---,0.00,VWS V14.01,2013-10-05 00:00:00,
2013-10-04 17:27:00,85.0,22.4,29.92,East,99,8.0,21.0,10,0.00,,---,0.00,VWS V14.01,2013-10-05 00:27:00,
2013-10-04 17:30:00,85.0,22.4,29.92,East,99,8.0,21.0,10,0.00,,---,0.00,VWS V14.01,2013-10-05 00:30:00,
2013-10-04 17:57:00,84.2,21.8,29.93,ENE,73,12.0,19.0,10,0.00,,---,0.00,VWS V14.01,2013-10-05 00:57:00,
2013-10-04 18:00:00,84.2,21.8,29.93,ENE,73,12.0,19.0,10,0.00,,---,0.00,VWS V14.01,2013-10-05 01:00:00,
2013-10-04 18:30:00,82.6,20.6,29.94,ENE,68,9.0,17.0,10,0.00,,---,0.00,VWS V14.01,2013-10-05 01:30:00,
2013-10-04 19:00:00,81.5,19.7,29.95,ENE,68,9.0,19.0,10,0.00,,---,0.00,VWS V14.01,2013-10-05 02:00:00,
2013-10-04 19:30:00,80.1,20.9,29.97,ENE,68,8.0,20.0,11,0.00,,---,0.00,VWS V14.01,2013-10-05 02:30:00,
2013-10-04 20:00:00,78.2,21.5,29.98,ENE,68,5.0,18.0,12,0.00,,---,0.00,VWS V14.01,2013-10-05 03:00:00,
2013-10-04 20:30:00,77.8,23.1,29.99,ENE,68,9.0,19.0,13,0.00,,---,0.00,VWS V14.01,2013-10-05 03:30:00,
2013-10-04 21:00:00,77.9,23.1,30.00,NE,45,11.0,24.0,13,0.00,,---,0.00,VWS V14.01,2013-10-05 04:00:00,
2013-10-04 21:30:00,77.7,23.0,30.01,NE,45,12.0,22.0,13,0.00,,---,0.00,VWS V14.01,2013-10-05 04:30:00,
2013-10-04 22:00:00,77.2,24.4,30.02,NE,45,10.0,18.0,14,0.00,,---,0.00,VWS V14.01,2013-10-05 05:00:00,
2013-10-04 22:30:00,77.6,24.7,30.02,NE,45,11.0,33.0,14,0.00,,---,0.00,VWS V14.01,2013-10-05 05:30:00,
2013-10-04 23:00:00,77.2,24.4,30.03,NE,45,11.0,25.0,14,0.00,,---,0.00,VWS V14.01,2013-10-05 06:00:00,
2013-10-04 23:30:00,77.4,24.5,30.03,NE,45,11.0,22.0,14,0.00,,---,0.00,VWS V14.01,2013-10-05 06:30:00,